Gastonia, NC

4:29 AM EST on January 20, 2020 (GMT -0500)
Gastonia Municipal

Weather History for KAKH - November, 2019

Change the Weather History Date:

Friday, November 8, 2019

  Actual Average (KCLT) Record (KCLT)
Temperature  
Mean Temperature 47 °F -  
Max Temperature 57 °F 62 °F 78 °F (1934)
Min Temperature 37 °F 41 °F 25 °F (1967)
Degree Days  
Heating Degree Days 18    
Moisture  
Dew Point 32 °F    
Average Humidity 56    
Maximum Humidity 87    
Minimum Humidity 31    
Precipitation  
Precipitation 0.08 in - - ()
Sea Level Pressure  
Sea Level Pressure 30.20 in    
Wind  
Wind Speed 7 mph ()    
Max Wind Speed 14 mph    
Max Gust Speed 23 mph    
Visibility 9.9 miles    
Events Rain    
Averages and records for this station are not official NWS values.
T = Trace of Precipitation, MM = Missing Value Source: Averaged Metar Reports

Daily Weather History Graph

Daily Weather History Graph

Search for Another Location

Airport or City:

Astronomy

Nov. 08, 2019 Rise Set
Actual Time 6:52 AM EST 5:23 PM EST
Civil Twilight 6:25 AM EST 5:50 PM EST
Nautical Twilight 5:55 AM EST 6:20 PM EST
Astronomical Twilight 5:25 AM EST 6:50 PM EST
Moon 3:47 PM EST (11/8) 3:01 AM EST (11/8)
Length of Visible Light 11h 24m
Length of Day
10h 31m
Waxing Gibbous, 86% of the Moon is Illuminated
Nov 8
Waxing Gibbous
Nov 12
Full
Nov 19
Last Quarter
Nov 26
New
Dec 4
First Quarter

Hourly Weather History & Observations

Time (EST) Temp. Windchill Dew Point Humidity Pressure Visibility Wind Dir Wind Speed Gust Speed Precip Events Conditions
12:54 AM 57.0 °F - 52.0 °F 83% 30.05 in 7.0 mi North 3.5 mph - 0.05 in Rain Light Rain
1:54 AM 57.0 °F - 53.1 °F 87% 30.03 in 10.0 mi NNE 5.8 mph - 0.03 in   Mostly Cloudy
2:54 AM 57.0 °F - 52.0 °F 83% 30.04 in 10.0 mi NNE 8.1 mph - N/A   Clear
3:54 AM 54.0 °F - 46.9 °F 77% 30.07 in 10.0 mi North 8.1 mph - N/A   Clear
4:54 AM 52.0 °F - 45.0 °F 77% 30.09 in 10.0 mi North 4.6 mph - N/A   Clear
5:54 AM 50.0 °F - 43.0 °F 77% 30.12 in 10.0 mi North 5.8 mph - N/A   Clear
6:54 AM 46.9 °F - 37.9 °F 71% 30.15 in 10.0 mi North 5.8 mph - N/A   Clear
7:54 AM 48.0 °F - 37.9 °F 68% 30.19 in 10.0 mi North 6.9 mph - N/A   Clear
8:54 AM 48.9 °F - 30.0 °F 48% 30.21 in 10.0 mi North 12.7 mph 23.0 mph N/A   Clear
9:54 AM 50.0 °F - 28.0 °F 43% 30.23 in 10.0 mi North 13.8 mph - N/A   Clear
10:54 AM 52.0 °F - 28.9 °F 41% 30.23 in 10.0 mi NNE 13.8 mph 20.7 mph N/A   Clear
12:54 PM 54.0 °F - 26.1 °F 34% 30.20 in 10.0 mi NE 10.4 mph - N/A   Clear
1:54 PM 54.0 °F - 24.1 °F 31% 30.19 in 10.0 mi NE 9.2 mph 17.3 mph N/A   Clear
2:54 PM 52.0 °F - 25.0 °F 35% 30.20 in 10.0 mi NE 10.4 mph - N/A   Clear
3:54 PM 50.0 °F - 24.1 °F 36% 30.22 in 10.0 mi NE 11.5 mph - N/A   Clear
4:54 PM 46.9 °F - 23.0 °F 39% 30.22 in 10.0 mi NE 8.1 mph - N/A   Clear
5:54 PM 44.1 °F 41.5 °F 24.1 °F 45% 30.25 in 10.0 mi NE 4.6 mph - N/A   Clear
6:54 PM 42.1 °F 38.4 °F 24.1 °F 49% 30.28 in 10.0 mi NE 5.8 mph - N/A   Clear
7:54 PM 42.1 °F 37.1 °F 23.0 °F 47% 30.29 in 10.0 mi NE 8.1 mph - N/A   Clear
8:54 PM 39.9 °F 34.5 °F 21.9 °F 49% 30.31 in 10.0 mi NE 8.1 mph - N/A   Clear
9:54 PM 37.9 °F 33.5 °F 21.9 °F 53% 30.32 in 10.0 mi NE 5.8 mph - N/A   Clear
10:54 PM 37.0 °F 31.6 °F 21.9 °F 54% 30.31 in 10.0 mi NE 6.9 mph - N/A   Clear
11:54 PM 37.0 °F 31.6 °F 21.0 °F 52% 30.31 in 10.0 mi NNE 6.9 mph - N/A   Clear